Location: Biltmore Gardens
(41.6070°N, 83.4666°W)
Time: 15:10:44
(UTC+00:00)

ARIANE 5 R/B - Pass Details

Date: 14 July 2020
Orbit: 749 x 794 km, 98.6° (Epoch: 13 August)

Event Time Altitude Azimuth Distance (km) Brightness Sun altitude
Rises 09:33:11 0° 0° (N) 3,237 6.3 -6.9°
Reaches altitude 10° 09:35:53 10° 347° (NNW) 2,314 5.3 -6.5°
Maximum altitude 09:39:49 23° 296° (WNW) 1,590 3.9 -5.9°
Drops below altitude 10° 09:43:48 10° 244° (WSW) 2,325 4.3 -5.3°
Enters shadow 09:44:50 - 238° (WSW) 2,662 4.6 -5.2°
